STARLINK-5861, 55921

Orbit data source: Space-Track

STARLINK-5861, 55921 is a payload satellite owned by SpaceX/Seattle (US) in LEO that was launched on Fri, 17 Mar 2023 UTC via an FALCON 9 launch vehicle from the Air Force Western Test Range (AFWTR). Payload-class satellites include a variety of spacecraft equipped with specific instruments for various scientific and technological missions. These include communications satellites like Starlink; space stations such as the ISS; scientific satellites like the Hubble; Earth observation satellites from companies like Planet Labs, Umbra, and HawkEye 360; GPS; miniature CubeSats for education and research; and military/defense satellites.

Loading next visibility...
Identifier
55921, 2023-037H
Orbit
LEO
Country
Flag of USUS
Related business
Manufacturer
SpaceX/Seattle
Mission
Operational Commercial Communications
Bus & Motor
STARLINK, Unknown motor
Mass
305 kg wet, ~290 kg dry
Launch date (UTC)
2023-03-17 (3 years ago)
Launch vehicle
FALCON 9
Launch site
Air Force Western Test Range (AFWTR)
Object type
Payload
Rocket body
Debris
Shape & HBR
Box + 1 Pan, 10.1 m
Radar Cross Section
11.087 m², Large (>1 m²)

Expand to show TLE details & history
Last TLE update: 3 days ago

TLE from 3 days ago
0 STARLINK-5861
1 55921U 23037H   26170.93402145 -.00000512  00000-0 -35097-4 0  9999
2 55921  69.9999  46.6142 0003012 269.2163  90.8651 14.98329922178805
Epoch: 2026-06-19T22:24Z
TLE epoch observation values (Epoch: 2026-06-19T22:24:59.453Z)
Latitude
-0.00001°
Longitude
162.2106°
Altitude
574.512 km
Speed
7.574 km/s
True Right ascension
03h 06m 27s
True Declination
0° 00' 00"
Sunlit
Object was in daylight at epoch
Visualization orbit readout
Latitude
Unknown
Longitude
Unknown
Altitude
Unknown
Speed
Unknown
Apparent Right ascension
Unknown
Apparent Declination
Unknown
Sunlit
N/A
Visualization observer readout
Local Sidereal Time
21:56:21
Azimuth
Unknown
Elevation
Unknown
Doppler factor
Unknown
Orbital elements
Apogee altitude
572.097 km
Perigee altitude
567.912 km
Semi-major axis
6,948.141 km
Eccentricity
0.0003
Inclination
69.9999°
RAAN
46.6142°
Arg. of periapsis
269.2163°
True anomaly
90.89961°
Mean anomaly
90.8651°
Eccentric anomaly
90.88236°
Mean motion
3.74749 °/min
Orbital period
96.06 mins
BSTAR
-0.000035097
Loading maneuver chart data...
Computing Atmospheric mass density...
Loading historical data...
Loading historical data...
Loading historical data...
Loading historical data...
Loading historical data...
Loading historical data...
Loading historical data...

Documentation

Showing up to 5 results
|